Weather History for St. Francis, KS

Change the Weather History Date:

Tuesday, November 26, 2013

  Actual Average Record
Temperature  
Mean Temperature 30 °F -  
Max Temperature 41 °F 48 °F 41 °F (2013)
Min Temperature 18 °F 22 °F 18 °F (2013)
Degree Days  
Heating Degree Days 36    
Moisture  
Dew Point 18 °F    
Average Humidity 67    
Maximum Humidity 88    
Minimum Humidity 35    
Precipitation  
Precipitation 0.00 in - - ()
Sea Level Pressure  
Sea Level Pressure 30.34 in    
Wind  
Wind Speed 7 mph (WNW)    
Max Wind Speed 14 mph    
Max Gust Speed 18 mph    
Visibility 10 miles    
Events      
Averages and records for this station are not official NWS values.
T = Trace of Precipitation, MM = Missing Value Source: NWS Daily Summary

Daily Weather History Graph

Daily Weather History Graph

Search for Another Location

Airport:

Trip Planner

Search our weather history database for the weather conditions in past years. The results will help you decide how hot, cold, wet, or windy it might be!

Date:

Astronomy

Nov. 26, 2013 Rise Set
Actual Time 7:44 AM CST 5:24 PM CST
Civil Twilight 7:14 AM CST 5:54 PM CST
Nautical Twilight 6:41 AM CST 6:27 PM CST
Astronomical Twilight 6:09 AM CST 6:59 PM CST
Moon 12:50 AM CST (11/26) 1:31 PM CST (11/26)
Length of Visible Light 10h 39m
Length of Day
9h 40m
Last Quarter, 41% of the Moon is Illuminated
Nov 26
Last Quarter
Dec 2
New
Dec 9
First Quarter
Dec 17
Full
Dec 25
Last Quarter

Hourly Weather History & Observations

Time (CST) Temp. Windchill Dew Point Humidity Pressure Visibility Wind Dir Wind Speed Gust Speed Precip Events Conditions
12:15 AM 22.1 °F 13.7 °F 18.9 °F 87% 30.29 in 10.0 mi WSW 6.9 mph - N/A   Clear
12:35 AM 21.2 °F 11.7 °F 18.1 °F 88% 30.29 in 10.0 mi WSW 8.1 mph - N/A   Clear
12:55 AM 21.7 °F 11.5 °F 18.5 °F 87% 30.29 in 10.0 mi SW 9.2 mph - N/A   Clear
1:15 AM 21.7 °F 12.3 °F 18.3 °F 87% 30.29 in 10.0 mi SW 8.1 mph - N/A   Clear
1:35 AM 21.2 °F 11.7 °F 18.0 °F 87% 30.29 in 10.0 mi WSW 8.1 mph - N/A   Clear
1:55 AM 21.2 °F 10.9 °F 17.8 °F 87% 30.29 in 10.0 mi SW 9.2 mph - N/A   Clear
2:15 AM 21.0 °F 10.6 °F 17.6 °F 87% 30.29 in 10.0 mi WSW 9.2 mph - N/A   Clear
2:35 AM 20.3 °F 11.5 °F 17.1 °F 87% 30.30 in 10.0 mi WSW 6.9 mph - N/A   Clear
2:55 AM 19.8 °F 9.9 °F 16.5 °F 87% 30.30 in 10.0 mi WSW 8.1 mph - N/A   Clear
3:15 AM 19.4 °F 8.6 °F 16.3 °F 88% 30.30 in 10.0 mi WSW 9.2 mph - N/A   Clear
3:35 AM 19.2 °F 8.4 °F 15.8 °F 87% 30.30 in 10.0 mi WSW 9.2 mph - N/A   Clear
3:55 AM 18.9 °F 7.2 °F 15.6 °F 87% 30.30 in 10.0 mi WSW 10.4 mph - N/A   Clear
4:15 AM 19.0 °F 8.2 °F 15.8 °F 87% 30.30 in 10.0 mi WSW 9.2 mph - N/A   Clear
4:35 AM 18.5 °F 8.4 °F 15.4 °F 88% 30.30 in 10.0 mi WSW 8.1 mph - N/A   Clear
4:55 AM 18.7 °F 7.8 °F 15.4 °F 87% 30.31 in 10.0 mi WSW 9.2 mph - N/A   Clear
5:15 AM 19.4 °F 8.6 °F 16.0 °F 87% 30.30 in 10.0 mi SW 9.2 mph - N/A   Clear
5:35 AM 19.4 °F 8.6 °F 15.8 °F 86% 30.31 in 10.0 mi WSW 9.2 mph - N/A   Clear
5:55 AM 20.1 °F 9.5 °F 16.5 °F 86% 30.31 in 10.0 mi WSW 9.2 mph - N/A   Clear
6:15 AM 19.8 °F 9.1 °F 16.5 °F 87% 30.32 in 10.0 mi WSW 9.2 mph - N/A   Clear
6:35 AM 20.7 °F 11.9 °F 17.6 °F 88% 30.32 in 10.0 mi SW 6.9 mph - N/A   Clear
6:55 AM 22.3 °F 14.9 °F 18.9 °F 87% 30.32 in 10.0 mi SW 5.8 mph - N/A   Clear
7:15 AM 23.9 °F 18.0 °F 19.6 °F 84% 30.33 in 10.0 mi SW 4.6 mph - N/A   Clear
7:35 AM 24.6 °F - 18.5 °F 78% 30.35 in 10.0 mi Calm Calm - N/A   Clear
7:55 AM 26.8 °F 18.5 °F 20.1 °F 76% 30.35 in 10.0 mi WNW 8.1 mph - N/A   Clear
8:15 AM 24.8 °F 19.1 °F 19.2 °F 79% 30.36 in 10.0 mi WSW 4.6 mph - N/A   Clear
8:35 AM 27.7 °F 20.4 °F 21.2 °F 77% 30.36 in 10.0 mi WNW 6.9 mph - N/A   Clear
8:55 AM 29.5 °F 25.9 °F 22.5 °F 75% 30.38 in 10.0 mi NW 3.5 mph - N/A   Clear
9:15 AM 30.9 °F - 23.4 °F 74% 30.38 in 10.0 mi Calm Calm - N/A   Clear
9:35 AM 32.9 °F 25.9 °F 24.6 °F 72% 30.39 in 10.0 mi NNW 8.1 mph - N/A   Clear
9:55 AM 34.3 °F 27.0 °F 25.2 °F 69% 30.39 in 10.0 mi North 9.2 mph - N/A   Clear
10:15 AM 34.7 °F 25.9 °F 23.0 °F 62% 30.39 in 10.0 mi North 12.7 mph - N/A   Clear
10:35 AM 35.1 °F 29.3 °F 22.3 °F 60% 30.40 in 10.0 mi North 6.9 mph - N/A   Clear
10:55 AM 36.0 °F 29.0 °F 19.9 °F 52% 30.39 in 10.0 mi North 9.2 mph - N/A   Clear
11:15 AM 36.5 °F 31.8 °F 20.3 °F 52% 30.39 in 10.0 mi North 5.8 mph - N/A   Clear
11:35 AM 37.4 °F 31.4 °F 21.0 °F 52% 30.39 in 10.0 mi North 8.1 mph - N/A   Clear
11:55 AM 38.3 °F 33.2 °F 20.3 °F 48% 30.39 in 10.0 mi North 6.9 mph - N/A   Clear
12:15 PM 39.7 °F 33.2 °F 18.5 °F 42% 30.37 in 10.0 mi North 10.4 mph 16.1 mph N/A   Clear
12:35 PM 40.1 °F 33.6 °F 16.2 °F 38% 30.37 in 10.0 mi North 10.4 mph 17.3 mph N/A   Clear
12:55 PM 40.6 °F 33.8 °F 16.7 °F 38% 30.36 in 10.0 mi North 11.5 mph - N/A   Clear
1:15 PM 40.8 °F 33.7 °F 16.0 °F 37% 30.36 in 10.0 mi North 12.7 mph - N/A   Clear
1:35 PM 41.0 °F 33.5 °F 15.6 °F 36% 30.35 in 10.0 mi North 13.8 mph 18.4 mph N/A   Clear
1:55 PM 41.2 °F 35.0 °F 15.4 °F 35% 30.35 in 10.0 mi North 10.4 mph - N/A   Clear
2:15 PM 41.4 °F 34.7 °F 15.6 °F 35% 30.34 in 10.0 mi North 11.5 mph - N/A   Clear
2:35 PM 41.4 °F 34.3 °F 15.6 °F 35% 30.34 in 10.0 mi North 12.7 mph 16.1 mph N/A   Clear
2:55 PM 41.2 °F 36.6 °F 16.0 °F 36% 30.34 in 10.0 mi North 6.9 mph - N/A   Clear
3:15 PM 41.4 °F 36.8 °F 16.3 °F 36% 30.34 in 10.0 mi North 6.9 mph - N/A   Clear
3:35 PM 41.0 °F 35.8 °F 16.3 °F 37% 30.34 in 10.0 mi North 8.1 mph - N/A   Clear
3:55 PM 40.5 °F 34.1 °F 16.7 °F 38% 30.34 in 10.0 mi North 10.4 mph - N/A   Clear
4:15 PM 39.9 °F 34.5 °F 16.9 °F 39% 30.34 in 10.0 mi North 8.1 mph - N/A   Clear
4:35 PM 39.0 °F 34.0 °F 17.4 °F 42% 30.34 in 10.0 mi North 6.9 mph - N/A   Clear
4:55 PM 37.2 °F 31.9 °F 17.4 °F 45% 30.34 in 10.0 mi North 6.9 mph - N/A   Clear
5:15 PM 34.7 °F 30.6 °F 17.2 °F 49% 30.34 in 10.0 mi North 4.6 mph - N/A   Clear
5:35 PM 34.5 °F - 17.6 °F 50% 30.34 in 10.0 mi Calm Calm - N/A   Clear
5:55 PM 33.4 °F - 18.0 °F 53% 30.34 in 10.0 mi Calm Calm - N/A   Clear
6:15 PM 32.9 °F - 18.0 °F 54% 30.34 in 10.0 mi Calm Calm - N/A   Clear
6:35 PM 32.2 °F - 18.0 °F 56% 30.34 in 10.0 mi Calm Calm - N/A   Clear
6:55 PM 32.5 °F - 18.1 °F 55% 30.34 in 10.0 mi Calm Calm - N/A   Clear
7:15 PM 30.9 °F - 18.1 °F 59% 30.35 in 10.0 mi Calm Calm - N/A   Clear
7:35 PM 28.4 °F 24.6 °F 18.3 °F 66% 30.34 in 10.0 mi SE 3.5 mph - N/A   Clear
7:55 PM 26.4 °F 20.9 °F 17.8 °F 70% 30.34 in 10.0 mi ESE 4.6 mph - N/A   Clear
8:15 PM 25.0 °F - 17.6 °F 74% 30.35 in 10.0 mi Calm Calm - N/A   Clear
8:35 PM 25.2 °F 20.9 °F 17.1 °F 71% 30.35 in 10.0 mi SSE 3.5 mph - N/A   Clear
8:55 PM 22.3 °F - 15.8 °F 76% 30.35 in 10.0 mi Calm Calm - N/A   Clear
9:15 PM 22.3 °F 13.9 °F 15.1 °F 74% 30.35 in 10.0 mi WSW 6.9 mph - N/A   Clear
9:35 PM 21.4 °F 15.1 °F 15.6 °F 78% 30.35 in 10.0 mi SW 4.6 mph - N/A   Clear
9:55 PM 19.9 °F 10.1 °F 14.7 °F 80% 30.35 in 10.0 mi WSW 8.1 mph - N/A   Clear
10:15 PM 19.4 °F 9.5 °F 14.5 °F 81% 30.35 in 10.0 mi SW 8.1 mph - N/A   Clear
10:35 PM 20.7 °F - 15.1 °F 79% 30.35 in 10.0 mi Calm Calm - N/A   Clear
10:55 PM 18.5 °F - 13.5 °F 81% 30.35 in 10.0 mi Calm Calm - N/A   Clear
11:15 PM 19.8 °F 13.2 °F 14.9 °F 81% 30.35 in 10.0 mi SW 4.6 mph - N/A   Clear
11:35 PM 20.3 °F 13.8 °F 14.9 °F 80% 30.35 in 10.0 mi SW 4.6 mph - N/A   Clear
11:55 PM 20.8 °F 13.2 °F 15.3 °F 79% 30.35 in 10.0 mi SW 5.8 mph - N/A   Clear